Location: Katowice
(50.2611°N, 19.0242°E)
Time: 18:04:41
(UTC+02:00)

Explorer 7 - Pass Details

Date: 31 August 2019
Orbit: 485 x 680 km, 50.3° (Epoch: 14 September)

Event Time Altitude Azimuth Distance (km) Brightness Sun altitude
Rises 05:33:39 0° 181° (S) 3,015 10.4 -4.3°
Reaches altitude 10° 05:38:03 10° 143° (SE) 2,112 10.1 -3.6°
Maximum altitude 05:39:07 11° 131° (SE) 2,069 10.2 -3.5°
Drops below altitude 10° 05:40:10 10° 118° (ESE) 2,112 10.5 -3.3°
Sets 05:44:34 0° 81° (E) 3,012 13.1 -2.6°
